Location: Malvern Link
(52.1333°N, 2.3000°W)
Time: 09:02:58
(UTC+00:00)

Cosmos 1634 Rocket - Pass Details

Date: 08 December 2021
Orbit: 959 x 993 km, 82.9° (Epoch: 24 January)

Event Time Altitude Azimuth Distance (km) Brightness Sun altitude
Rises 17:32:06 0° 188° (S) 3,696 7.4 -13.5°
Reaches altitude 10° 17:34:36 10° 188° (S) 2,752 6.7 -13.9°
Maximum altitude 17:40:57 89° 280° (W) 1,001 4.0 -14.8°
Drops below altitude 10° 17:47:20 10° 10° (N) 2,764 6.1 -15.7°
Sets 17:49:51 0° 11° (N) 3,713 6.8 -16.1°
